Regional Weather Roundup
Issued by NWS

Home | Current Version | Previous Version | Text Only | Print | Product List | Glossary On
Versions: 1 2 3 4 5 6 7 8 9 10 11 12 13 14 15 16 17 18 19 20 21 22 23 24 25 26 27 28 29 30 31 32 33 34 35 36 37 38 39 40 41 42 43 44 45 46 47 48 49 50
000
ASUS44 KJAN 251910
RWRMS

MISSISSIPPI HOURLY WEATHER ROUNDUP
NATIONAL WEATHER SERVICE JACKSON MS
200 PM CDT SAT OCT 25 2014

NOTE: "FAIR: INDICATES FEW OR NO CLOUDS BELOW 12,000 FEET WITH NO
SIGNIFICANT WEATHER AND/OR OBSTRUCTIONS TO VISIBILITY.

MSZ001>002-007>008-010>013-018>021-025>028-034>036-252000-
NORTHWEST MISSISSIPPI

CITY           SKY/WX    TMP DP  RH WIND       PRES   REMARKS
CLARKSDALE     FAIR      81  63  54 SW7       30.06F
CLEVELAND      FAIR      80  63  57 W8        30.06F
GREENWOOD      SUNNY     79  59  50 VRB5      30.07F
GREENVILLE     SUNNY     81  60  48 W12       30.07F
GRENADA          N/A    N/A N/A N/A MISG        N/A
OLIVE BRANCH   MOSUNNY   79  64  61 SW9       30.05F
OXFORD         FAIR      75  59  57 W6        30.08F
TUNICA         PTCLDY    79  61  53 SW10      30.05F
$$

MSZ003>006-009-014>017-022>024-029>033-037>039-252000-
NORTHEAST MISSISSIPPI

CITY           SKY/WX    TMP DP  RH WIND       PRES   REMARKS
COLUMBUS AFB   SUNNY     79  59  51 VRB5      30.06F
CORINTH          N/A     81  63  54 W7G14     30.03F
GOLDN TRIANGLE SUNNY     81  59  47 NW6       30.07F
STARKVILLE     FAIR      79  59  50 NW5       30.07F
TUPELO         SUNNY     79  60  52 W8        30.05F
$$

MSZ040-058-252000-
CENTRAL MISSISSIPPI

CITY           SKY/WX    TMP DP  RH WIND       PRES   REMARKS
JACKSON INTL   SUNNY     79  59  50 W8        30.10F
JACKSON HAWKNS SUNNY     79  59  50 NW7       30.10F
MERIDIAN KEY   SUNNY     79  57  46 N8        30.08F
MERIDIAN NAS   SUNNY     79  57  46 W12       30.09F
RAYMOND        FAIR      79  73  83 NW6       30.10F
VICKSBURG      SUNNY     79  58  48 CALM      30.11F
$$

MSZ059>079-252000-
SOUTH MISSISSIPPI

CITY           SKY/WX    TMP DP  RH WIND       PRES   REMARKS
BROOKHAVEN     FAIR      77  59  53 CALM      30.13F
COLUMBIA       FAIR      79  57  47 MISG        N/A
HATTIESBURG    SUNNY     77  57  50 W7        30.10F
MCCOMB         SUNNY     79  55  43 NW9       30.11F
NATCHEZ        SUNNY     77  55  47 NW6       30.13F
PINE BELT      SUNNY     79  55  44 N5        30.11F
$$

MSZ080>082-252000-
COASTAL MISSISSIPPI

CITY           SKY/WX    TMP DP  RH WIND       PRES   REMARKS
BAY ST LOUIS   SUNNY     79  50  36 NW6       30.09F
BILOXI         SUNNY     79  55  43 N5        30.07F
PASCAGOULA     SUNNY     78  52  40 NE8       30.07F
GULFPORT       SUNNY     78  52  40 N7        30.07F
$$



USA.gov is the U.S. government's official web portal to all federal, state and local government web resources and services.